Lid_Strength_Index
2 5 7 7 10 12 15 13 12 11 10 7 7 8 9 8 10 12 3 1 -0 0 -0 -1 -1 -1 -1 -1 -2 -2 -2 -2 -2 -2 -2 -2 -2 -2 -2 -2 -3 -2 -2 -2 -2 -2 -2 -2 -2
4 5 7 9 12 15 15 13 12 10 8 6 6 7 8 10 5 4 4 1 -0 -0 -0 -1 -1 -1 -1 -1 -2 -2 -2 -2 -2 -2 -2 -2 -2 -2 -2 -2 -3 -2 -2 -2 -2 -2 -2 -2 -2
5 6 9 12 14 16 15 12 10 9 7 7 8 6 8 8 5 4 2 -0 -0 -0 -0 -0 -1 -2 -1 -2 -2 -2 -2 -2 -2 -2 -2 -2 -2 -2 -2 -2 -2 -2 -2 -2 -2 -2 -2 -2 -2
7 8 9 12 13 13 13 10 9 10 10 6 7 9 6 3 4 2 0 -0 0 -0 -0 -1 -1 -2 -2 -2 -2 -2 -2 -2 -2 -2 -2 -2 -2 -2 -2 -2 -2 -2 -2 -2 -2 -2 -2 -2 -2
7 9 12 14 13 13 11 9 10 11 10 9 9 11 9 4 1 1 1 0 0 0 -0 -1 -1 -2 -2 -2 -2 -2 -3 -3 -3 -2 -2 -2 -2 -2 -2 -2 -2 -2 -2 -2 -2 -2 -2 -2 -2
9 11 13 15 13 13 11 10 10 11 9 8 8 9 9 2 2 1 0 1 -0 -0 -0 -0 -0 -1 -2 -3 -3 -3 -3 -3 -3 -3 -3 -2 -2 -2 -2 -2 -2 -2 -2 -2 -2 -2 -2 -2 -2
10 13 14 14 13 13 11 10 11 10 8 9 6 10 8 4 2 2 1 1 0 -0 0 0 -0 -0 -1 -2 -2 -2 -3 -3 -2 -2 -3 -3 -2 -2 -2 -2 -2 -2 -2 -2 -2 -2 -2 -2 -2
9 11 14 14 13 13 11 11 10 11 11 5 5 9 9 4 2 2 2 2 1 1 0 0 0 0 0 0 -0 -1 -2 -2 -2 -2 -2 -1 -1 -1 -1 -1 -2 -2 -2 -2 -2 -2 -2 -2 -2
8 13 14 13 14 13 11 12 11 9 8 8 6 5 4 2 2 2 2 3 2 1 1 0 0 0 0 1 1 0 -1 -1 -1 -1 -0 1 1 0 -0 -0 -1 -2 -2 -2 -2 -2 -1 -1 -1
10 13 12 10 11 12 11 11 10 9 9 9 9 6 3 3 3 3 3 4 3 3 2 1 1 1 1 0 1 1 0 1 1 1 1 1 0 0 0 1 -1 -2 -1 -2 -2 -1 -1 0 2
8 12 10 10 11 11 11 12 11 10 11 9 8 6 4 4 4 4 3 3 3 3 1 1 1 1 1 1 1 1 1 1 1 1 1 1 1 1 1 1 1 1 1 1 1 1 2 2 2
10 9 8 9 11 11 11 11 11 10 10 9 6 4 4 4 4 4 3 3 3 3 2 2 1 1 1 2 2 1 1 2 2 1 1 1 2 2 2 2 2 3 2 3 2 2 2 2 2
9 8 7 8 11 12 11 12 11 10 12 7 4 4 5 4 4 3 3 3 3 3 3 2 2 1 1 2 2 1 1 1 1 1 1 1 2 3 2 3 3 3 3 3 3 3 3 3 3
8 8 7 9 11 11 12 12 12 12 7 6 5 5 5 4 4 4 4 3 3 2 2 2 1 1 1 1 1 1 1 1 1 1 1 1 2 2 2 3 3 3 3 2 3 2 3 3 3
7 10 9 11 11 12 10 12 12 12 6 7 6 6 5 4 4 4 3 3 3 2 2 2 2 1 2 2 1 1 1 1 1 1 1 1 2 2 2 2 2 2 2 2 2 3 3 3 3
10 10 13 10 11 11 11 15 11 11 7 7 7 6 5 5 4 3 3 3 3 3 2 1 1 2 2 2 2 1 1 1 1 1 1 1 2 2 1 2 2 2 2 3 3 3 3 3 3
11 15 14 11 11 11 13 14 11 11 9 8 7 6 6 5 5 4 3 3 3 3 3 2 1 2 2 2 2 2 1 1 1 2 1 1 1 1 1 2 2 2 2 3 3 3 3 3 3
15 14 13 13 11 12 13 13 11 10 12 11 10 8 6 6 5 3 3 2 2 3 3 3 1 1 2 2 2 2 2 2 2 2 2 1 1 1 2 2 3 3 3 3 3 3 3 3 3
12 12 13 11 10 13 13 12 12 10 11 11 11 11 11 7 4 3 3 3 2 3 3 3 3 1 2 2 2 2 2 2 2 2 2 2 1 1 1 2 3 3 3 3 3 3 3 3 4
12 13 13 12 11 13 14 13 11 11 11 11 10 10 10 10 9 7 3 3 2 2 3 2 3 2 1 1 1 1 1 1 1 1 2 2 2 2 1 1 2 3 3 3 3 3 4 4 4
13 13 13 13 13 13 13 14 13 11 11 10 10 10 10 9 9 8 7 3 2 3 3 3 2 2 2 1 1 3 3 4 3 2 2 2 2 2 2 2 1 2 2 2 3 3 3 3 4
15 11 11 13 13 17 12 18 14 12 11 11 9 9 9 9 10 8 9 6 3 3 3 3 3 2 2 1 1 2 2 3 1 1 1 1 2 2 2 2 2 2 1 2 2 2 2 3 4
13 10 11 12 14 15 17 17 14 15 14 11 10 9 8 8 8 8 8 8 5 3 2 3 3 3 3 2 1 2 2 2 1 2 2 2 2 1 1 2 2 2 2 2 2 3 3 3 3
9 11 11 12 14 19 15 15 16 15 14 13 11 10 9 8 8 8 7 8 8 5 3 3 3 3 3 2 2 2 2 2 2 3 3 2 1 2 1 1 1 2 2 2 2 2 3 3 3
11 13 19 20 20 20 14 16 14 13 13 12 11 11 11 11 10 9 8 9 8 6 5 3 3 3 3 3 3 2 2 2 2 2 3 2 2 2 2 1 1 1 1 2 2 3 3 3 3
13 13 18 22 22 20 17 18 14 11 10 11 12 12 12 12 11 11 10 10 9 8 7 4 3 3 3 3 3 2 2 2 2 2 2 2 2 2 2 2 2 2 1 1 2 2 2 3 3
13 15 11 17 23 20 18 17 14 14 13 12 12 13 13 12 12 12 11 11 11 10 9 6 4 3 3 2 3 3 3 3 2 2 2 2 2 2 2 2 2 2 2 2 2 2 2 3 3
11 10 16 15 21 22 19 19 15 15 14 13 12 12 12 13 13 13 13 13 13 12 11 9 6 4 4 4 3 2 2 3 2 2 3 2 2 2 3 3 3 3 2 2 2 2 2 3 3
13 14 13 13 16 19 21 17 15 13 12 12 10 10 12 13 13 13 13 13 12 12 12 11 8 7 6 5 5 4 4 4 3 3 3 3 3 3 2 2 2 2 2 1 2 2 2 2 2
10 12 13 17 18 18 18 15 13 10 10 11 10 11 12 13 13 13 13 12 13 12 12 11 11 11 11 11 10 9 8 8 7 5 4 4 3 2 1 2 2 1 1 1 2 2 2 2 2